Moriarty, NM

12:47 PM MST on November 24, 2017 (GMT -0700)
Moriarty

Weather History for K0E0 - February, 2013

Change the Weather History Date:

Friday, February 22, 2013

  Actual Average (KABQ) Record (KABQ)
Temperature  
Mean Temperature 34 °F -  
Max Temperature 43 °F 53 °F 71 °F (1918)
Min Temperature 24 °F 26 °F 12 °F (1953)
Degree Days  
Heating Degree Days 32    
Moisture  
Dew Point 18 °F    
Average Humidity 57    
Maximum Humidity 80    
Minimum Humidity 31    
Precipitation  
Precipitation 0.00 in - - ()
Sea Level Pressure  
Sea Level Pressure 29.91 in    
Wind  
Wind Speed 10 mph (WNW)    
Max Wind Speed 24 mph    
Max Gust Speed 31 mph    
Visibility 10 miles    
Events      
Averages and records for this station are not official NWS values.
T = Trace of Precipitation, MM = Missing Value Source: NWS Daily Summary

Daily Weather History Graph

Daily Weather History Graph

Search for Another Location

Airport or City:

Trip Planner

Search our weather history database for the weather conditions in past years. The results will help you decide how hot, cold, wet, or windy it might be!

Date:

Astronomy

Feb. 22, 2013 Rise Set
Actual Time 6:41 AM MST 5:53 PM MST
Civil Twilight 6:16 AM MST 6:19 PM MST
Nautical Twilight 5:46 AM MST 6:48 PM MST
Astronomical Twilight 5:17 AM MST 7:18 PM MST
Moon 3:11 PM MST (2/22) 4:23 AM MST (2/22)
Length of Visible Light 12h 03m
Length of Day
11h 12m
Waxing Gibbous, 90% of the Moon is Illuminated
Feb 22
Waxing Gibbous
Feb 25
Full
Mar 4
Last Quarter
Mar 11
New
Mar 19
First Quarter

Hourly Weather History & Observations

Time (MST) Temp. Windchill Dew Point Humidity Pressure Visibility Wind Dir Wind Speed Gust Speed Precip Events Conditions
12:15 AM 26.6 °F 21.2 °F 19.4 °F 74% 29.88 in 10.0 mi West 4.6 mph - N/A   Scattered Clouds
12:35 AM 27.5 °F 22.2 °F 19.8 °F 73% 29.88 in 10.0 mi NW 4.6 mph - N/A   Overcast
12:55 AM 27.5 °F 21.1 °F 20.1 °F 74% 29.89 in 10.0 mi NW 5.8 mph - N/A   Overcast
1:15 AM 27.3 °F 17.7 °F 20.3 °F 75% 29.88 in 10.0 mi WNW 10.4 mph - N/A   Overcast
1:55 AM 28.0 °F 19.3 °F 20.7 °F 74% 29.88 in 10.0 mi West 9.2 mph - N/A   Scattered Clouds
2:15 AM 27.1 °F 16.9 °F 20.3 °F 75% 29.87 in 10.0 mi West 11.5 mph - N/A   Clear
2:35 AM 26.2 °F 16.4 °F 20.1 °F 78% 29.87 in 10.0 mi WSW 10.4 mph - N/A   Scattered Clouds
2:55 AM 27.3 °F 16.6 °F 20.7 °F 76% 29.87 in 10.0 mi West 12.7 mph - N/A   Scattered Clouds
3:15 AM 28.2 °F 17.7 °F 21.2 °F 75% 29.87 in 10.0 mi West 12.7 mph 17.3 mph N/A   Clear
3:35 AM 28.6 °F 18.7 °F 21.2 °F 74% 29.87 in 10.0 mi West 11.5 mph - N/A   Scattered Clouds
3:55 AM 27.9 °F 19.8 °F 21.0 °F 75% 29.87 in 10.0 mi West 8.1 mph - N/A   Scattered Clouds
4:15 AM 26.6 °F - 20.5 °F 78% 29.88 in 10.0 mi Calm Calm - N/A   Mostly Cloudy
4:35 AM 26.1 °F - 20.3 °F 79% 29.88 in 10.0 mi Calm Calm - N/A   Overcast
4:55 AM 26.4 °F - 20.8 °F 79% 29.88 in 10.0 mi Calm Calm - N/A   Overcast
5:15 AM 28.2 °F 18.9 °F 21.6 °F 76% 29.89 in 10.0 mi West 10.4 mph - N/A   Overcast
5:35 AM 28.4 °F 19.1 °F 21.0 °F 74% 29.89 in 10.0 mi West 10.4 mph - N/A   Overcast
5:55 AM 28.4 °F 18.5 °F 20.8 °F 73% 29.89 in 10.0 mi West 11.5 mph - N/A   Overcast
6:15 AM 28.4 °F 18.5 °F 20.7 °F 73% 29.88 in 10.0 mi West 11.5 mph - N/A   Overcast
6:35 AM 26.8 °F 19.3 °F 20.3 °F 77% 29.89 in 10.0 mi West 6.9 mph - N/A   Overcast
6:55 AM 24.6 °F 20.3 °F 19.2 °F 80% 29.90 in 10.0 mi ESE 3.5 mph - N/A   Scattered Clouds
7:15 AM 25.7 °F 21.5 °F 20.3 °F 80% 29.90 in 10.0 mi WSW 3.5 mph - N/A   Clear
7:35 AM 27.1 °F - 21.0 °F 78% 29.91 in 10.0 mi Calm Calm - N/A   Clear
7:55 AM 29.7 °F 26.1 °F 21.2 °F 71% 29.93 in 10.0 mi NE 3.5 mph - N/A   Clear
8:15 AM 30.9 °F - 21.4 °F 68% 29.94 in 10.0 mi Calm Calm - N/A   Clear
8:35 AM 32.9 °F 28.5 °F 21.7 °F 64% 29.94 in 10.0 mi WNW 4.6 mph - N/A   Scattered Clouds
9:15 AM 34.0 °F 25.5 °F 20.7 °F 58% 29.94 in 10.0 mi West 11.5 mph - N/A   Scattered Clouds
9:35 AM 36.7 °F 28.4 °F 19.6 °F 50% 29.94 in 10.0 mi WNW 12.7 mph 16.1 mph N/A   Mostly Cloudy
9:55 AM 38.8 °F 31.2 °F 19.8 °F 46% 29.94 in 10.0 mi WNW 12.7 mph - N/A   Overcast
10:15 AM 38.7 °F 31.8 °F 19.6 °F 46% 29.94 in 10.0 mi WNW 10.4 mph 17.3 mph N/A   Scattered Clouds
10:35 AM 37.6 °F 30.5 °F 19.2 °F 48% 29.94 in 10.0 mi West 10.4 mph 16.1 mph N/A   Scattered Clouds
10:55 AM 40.5 °F 33.2 °F 19.8 °F 44% 29.94 in 10.0 mi West 12.7 mph 17.3 mph N/A   Scattered Clouds
11:15 AM 40.3 °F 33.4 °F 18.5 °F 42% 29.93 in 10.0 mi WNW 11.5 mph 16.1 mph N/A   Mostly Cloudy
11:35 AM 38.3 °F 32.5 °F 17.4 °F 43% 29.93 in 10.0 mi West 8.1 mph - N/A   Scattered Clouds
11:55 AM 37.9 °F 31.5 °F 18.0 °F 45% 29.93 in 10.0 mi WNW 9.2 mph - N/A   Scattered Clouds
12:15 PM 41.2 °F 34.1 °F 17.1 °F 38% 29.92 in 10.0 mi WNW 12.7 mph 19.6 mph N/A   Mostly Cloudy
12:35 PM 42.8 °F 34.5 °F 15.8 °F 34% 29.90 in 10.0 mi West 18.4 mph 26.5 mph N/A   Overcast
12:55 PM 42.4 °F 33.8 °F 16.2 °F 35% 29.90 in 10.0 mi West 19.6 mph 26.5 mph N/A   Scattered Clouds
1:15 PM 42.6 °F 33.8 °F 15.8 °F 34% 29.89 in 10.0 mi West 20.7 mph 26.5 mph N/A   Clear
1:35 PM 39.9 °F 31.4 °F 13.8 °F 35% 29.89 in 10.0 mi West 16.1 mph 21.9 mph N/A   Scattered Clouds
1:55 PM 39.9 °F 30.8 °F 14.5 °F 36% 29.90 in 10.0 mi West 18.4 mph 26.5 mph N/A   Scattered Clouds
2:15 PM 40.8 °F 33.3 °F 14.9 °F 35% 29.89 in 10.0 mi WSW 13.8 mph - N/A   Mostly Cloudy
2:35 PM 43.0 °F 34.2 °F 13.8 °F 31% 29.89 in 10.0 mi WSW 20.7 mph 25.3 mph N/A   Mostly Cloudy
2:55 PM 42.4 °F 34.1 °F 13.6 °F 31% 29.89 in 10.0 mi WSW 18.4 mph 28.8 mph N/A   Mostly Cloudy
3:15 PM 41.9 °F 32.3 °F 12.7 °F 31% 29.88 in 10.0 mi WSW 23.0 mph 28.8 mph N/A   Overcast
3:35 PM 42.8 °F 34.8 °F 13.6 °F 31% 29.88 in 10.0 mi WSW 17.3 mph 26.5 mph N/A   Mostly Cloudy
3:55 PM 42.3 °F 32.6 °F 13.5 °F 31% 29.88 in 10.0 mi West 24.2 mph 27.6 mph N/A   Mostly Cloudy
4:15 PM 40.6 °F 30.4 °F 13.1 °F 33% 29.88 in 10.0 mi WSW 24.2 mph 31.1 mph N/A   Scattered Clouds
4:35 PM 40.3 °F 31.0 °F 12.9 °F 33% 29.88 in 10.0 mi WSW 19.6 mph 25.3 mph N/A   Scattered Clouds
4:55 PM 37.4 °F 29.3 °F 21.2 °F 52% 29.89 in 10.0 mi WNW 12.7 mph - N/A   Mostly Cloudy
5:15 PM 37.0 °F 29.3 °F 19.8 °F 50% 29.90 in 10.0 mi NNW 11.5 mph 20.7 mph N/A   Mostly Cloudy
5:35 PM 35.2 °F 27.6 °F 21.9 °F 58% 29.90 in 10.0 mi NW 10.4 mph - N/A   Overcast
5:55 PM 34.5 °F 26.7 °F 21.7 °F 60% 29.90 in 10.0 mi NNW 10.4 mph - N/A   Overcast
6:15 PM 32.0 °F 24.2 °F 20.8 °F 63% 29.91 in 10.0 mi NW 9.2 mph - N/A   Scattered Clouds
6:35 PM 31.8 °F 22.3 °F 21.4 °F 65% 29.92 in 10.0 mi NW 12.7 mph - N/A   Scattered Clouds
6:55 PM 32.0 °F 23.6 °F 19.9 °F 61% 29.92 in 10.0 mi NW 10.4 mph - N/A   Scattered Clouds
7:15 PM 33.8 °F 25.8 °F 16.3 °F 49% 29.93 in 10.0 mi NW 10.4 mph 20.7 mph N/A   Scattered Clouds
7:35 PM 33.8 °F 23.5 °F 17.4 °F 51% 29.94 in 10.0 mi NW 16.1 mph - N/A   Mostly Cloudy
7:55 PM 32.4 °F 20.3 °F 21.2 °F 63% 29.95 in 10.0 mi NW 20.7 mph 26.5 mph N/A   Overcast
8:15 PM 30.7 °F 19.2 °F 21.6 °F 69% 29.96 in 10.0 mi WNW 17.3 mph 25.3 mph N/A   Mostly Cloudy
8:35 PM 29.7 °F 18.2 °F 20.3 °F 68% 29.96 in 10.0 mi NW 16.1 mph 23.0 mph N/A   Scattered Clouds
8:55 PM 29.3 °F 16.6 °F 19.0 °F 66% 29.97 in 10.0 mi NW 19.6 mph 24.2 mph N/A   Clear
9:15 PM 29.3 °F 17.0 °F 16.9 °F 60% 29.98 in 10.0 mi WNW 18.4 mph 25.3 mph N/A   Mostly Cloudy
9:35 PM 29.7 °F 16.7 °F 16.3 °F 58% 29.97 in 10.0 mi WNW 20.7 mph 26.5 mph N/A   Overcast
9:55 PM 29.1 °F 18.9 °F 15.6 °F 57% 29.98 in 10.0 mi WNW 12.7 mph - N/A   Mostly Cloudy
10:15 PM 28.9 °F 16.1 °F 12.6 °F 50% 29.98 in 10.0 mi NW 19.6 mph - N/A   Scattered Clouds
10:35 PM 28.2 °F 15.9 °F 11.3 °F 49% 29.98 in 10.0 mi NW 17.3 mph 23.0 mph N/A   Clear
10:55 PM 27.9 °F 16.8 °F 10.2 °F 48% 29.98 in 10.0 mi WNW 13.8 mph - N/A   Clear
11:15 PM 27.0 °F 16.1 °F 9.5 °F 48% 29.98 in 10.0 mi WNW 12.7 mph - N/A   Clear
11:35 PM 26.6 °F 13.4 °F 9.3 °F 48% 29.97 in 10.0 mi WNW 18.4 mph 23.0 mph N/A   Clear
11:55 PM 26.6 °F 14.3 °F 8.6 °F 47% 29.97 in 10.0 mi WNW 16.1 mph - N/A   Clear